Time,TemperatureF,DewpointF,PressureIn,WindDirection,WindDirectionDegrees,WindSpeedMPH,WindSpeedGustMPH,Humidity,HourlyPrecipIn,Conditions,Clouds,dailyrainin,SoftwareType,DateUTC
2013-08-24 00:01:00,75.9,67.0,30.02,SE,135,0.0,0.0,74,0.00,,,0.00,WUHU21623XXSP,2013-08-24 05:01:00,
2013-08-24 00:06:00,75.9,67.0,30.02,SE,135,0.0,0.0,74,0.00,,,0.00,WUHU21623XXSP,2013-08-24 05:06:00,
2013-08-24 00:11:00,75.7,66.8,30.02,SE,135,0.0,0.0,74,0.00,,,0.00,WUHU21623XXSP,2013-08-24 05:11:00,
2013-08-24 00:16:00,75.9,67.0,30.02,SE,135,0.0,0.0,74,0.00,,,0.00,WUHU21623XXSP,2013-08-24 05:16:00,
2013-08-24 00:21:00,75.7,66.8,30.02,SE,135,0.0,0.0,74,0.00,,,0.00,WUHU21623XXSP,2013-08-24 05:21:00,
2013-08-24 00:26:00,75.7,66.8,30.02,SE,135,0.0,0.0,74,0.00,,,0.00,WUHU21623XXSP,2013-08-24 05:26:00,
2013-08-24 00:31:00,75.4,66.5,30.02,SE,135,0.0,0.0,74,0.00,,,0.00,WUHU21623XXSP,2013-08-24 05:31:00,
2013-08-24 00:36:00,75.4,66.5,30.02,SE,135,0.0,0.0,74,0.00,,,0.00,WUHU21623XXSP,2013-08-24 05:36:00,
2013-08-24 00:41:00,75.4,66.9,30.02,SE,135,0.0,0.0,75,0.00,,,0.00,WUHU21623XXSP,2013-08-24 05:41:00,
2013-08-24 00:46:00,75.4,66.9,30.03,SE,135,0.0,0.0,75,0.00,,,0.00,WUHU21623XXSP,2013-08-24 05:46:00,
2013-08-24 00:51:00,75.2,66.7,30.03,SE,135,0.0,0.0,75,0.00,,,0.00,WUHU21623XXSP,2013-08-24 05:51:00,
2013-08-24 00:56:00,75.2,66.7,30.03,SE,135,0.0,0.0,75,0.00,,,0.00,WUHU21623XXSP,2013-08-24 05:56:00,
2013-08-24 01:01:00,75.0,66.6,30.03,SE,135,0.0,0.0,75,0.00,,,0.00,WUHU21623XXSP,2013-08-24 06:01:00,
2013-08-24 01:06:00,75.0,66.6,30.03,SE,135,0.0,0.0,75,0.00,,,0.00,WUHU21623XXSP,2013-08-24 06:06:00,
2013-08-24 01:11:00,74.8,66.4,30.03,SE,135,0.0,0.0,75,0.00,,,0.00,WUHU21623XXSP,2013-08-24 06:11:00,
2013-08-24 01:16:00,74.8,66.4,30.03,SE,135,0.0,0.0,75,0.00,,,0.00,WUHU21623XXSP,2013-08-24 06:16:00,
2013-08-24 01:21:00,74.8,66.8,30.03,SE,135,0.0,0.0,76,0.00,,,0.00,WUHU21623XXSP,2013-08-24 06:21:00,
2013-08-24 01:26:00,74.7,66.6,30.02,SE,135,0.0,0.0,76,0.00,,,0.00,WUHU21623XXSP,2013-08-24 06:26:00,
2013-08-24 01:31:00,74.7,66.6,30.03,SE,135,0.0,0.0,76,0.00,,,0.00,WUHU21623XXSP,2013-08-24 06:31:00,
2013-08-24 01:36:00,74.7,66.6,30.03,SE,135,0.0,0.0,76,0.00,,,0.00,WUHU21623XXSP,2013-08-24 06:36:00,
2013-08-24 01:41:00,74.7,66.6,30.04,SE,135,0.0,0.0,76,0.00,,,0.00,WUHU21623XXSP,2013-08-24 06:41:00,
2013-08-24 01:46:00,74.5,66.4,30.04,SE,135,0.0,0.0,76,0.00,,,0.00,WUHU21623XXSP,2013-08-24 06:46:00,
2013-08-24 01:51:00,74.3,66.3,30.03,SE,135,0.0,0.0,76,0.00,,,0.00,WUHU21623XXSP,2013-08-24 06:51:00,
2013-08-24 01:56:00,74.1,66.1,30.03,SE,135,0.0,0.0,76,0.00,,,0.00,WUHU21623XXSP,2013-08-24 06:56:00,
2013-08-24 02:01:00,74.1,66.5,30.03,SE,135,0.0,0.0,77,0.00,,,0.00,WUHU21623XXSP,2013-08-24 07:01:00,
2013-08-24 02:06:00,74.1,66.5,30.04,SE,135,0.0,0.0,77,0.00,,,0.00,WUHU21623XXSP,2013-08-24 07:06:00,
2013-08-24 02:11:00,73.9,66.3,30.04,SE,135,0.0,0.0,77,0.00,,,0.00,WUHU21623XXSP,2013-08-24 07:11:00,
2013-08-24 02:16:00,73.8,66.5,30.04,SE,135,0.0,0.0,78,0.00,,,0.00,WUHU21623XXSP,2013-08-24 07:16:00,
2013-08-24 02:21:00,73.9,66.7,30.04,SE,135,0.0,0.0,78,0.00,,,0.00,WUHU21623XXSP,2013-08-24 07:21:00,
2013-08-24 02:26:00,73.9,66.7,30.04,SE,135,0.0,0.0,78,0.00,,,0.00,WUHU21623XXSP,2013-08-24 07:26:00,
2013-08-24 02:31:00,73.9,66.7,30.04,SE,135,0.0,0.0,78,0.00,,,0.00,WUHU21623XXSP,2013-08-24 07:31:00,
2013-08-24 02:36:00,73.8,66.5,30.04,SE,135,0.0,0.0,78,0.00,,,0.00,WUHU21623XXSP,2013-08-24 07:36:00,
2013-08-24 02:41:00,73.8,66.5,30.04,SE,135,0.0,0.0,78,0.00,,,0.00,WUHU21623XXSP,2013-08-24 07:41:00,
2013-08-24 02:46:00,73.8,66.9,30.04,SE,135,0.0,0.0,79,0.00,,,0.00,WUHU21623XXSP,2013-08-24 07:46:00,
2013-08-24 02:51:00,73.8,66.9,30.04,SE,135,0.0,0.0,79,0.00,,,0.00,WUHU21623XXSP,2013-08-24 07:51:00,
2013-08-24 02:56:00,73.6,66.7,30.04,SE,135,0.0,0.0,79,0.00,,,0.00,WUHU21623XXSP,2013-08-24 07:56:00,
2013-08-24 03:01:00,73.6,66.7,30.04,SE,135,0.0,0.0,79,0.00,,,0.00,WUHU21623XXSP,2013-08-24 08:01:00,
2013-08-24 03:06:00,73.6,66.7,30.04,SE,135,0.0,0.0,79,0.00,,,0.00,WUHU21623XXSP,2013-08-24 08:06:00,
2013-08-24 03:11:00,73.6,66.7,30.04,SE,135,0.0,0.0,79,0.00,,,0.00,WUHU21623XXSP,2013-08-24 08:11:00,
2013-08-24 03:16:00,73.4,66.5,30.04,SE,135,0.0,0.0,79,0.00,,,0.00,WUHU21623XXSP,2013-08-24 08:16:00,
2013-08-24 03:21:00,73.4,66.5,30.04,SE,135,0.0,0.0,79,0.00,,,0.00,WUHU21623XXSP,2013-08-24 08:21:00,
2013-08-24 03:26:00,73.2,66.4,30.03,SE,135,0.0,0.0,79,0.00,,,0.00,WUHU21623XXSP,2013-08-24 08:26:00,
2013-08-24 03:31:00,73.0,66.2,30.04,SE,135,0.0,0.0,79,0.00,,,0.00,WUHU21623XXSP,2013-08-24 08:31:00,
2013-08-24 03:36:00,73.0,66.2,30.04,SE,135,0.0,0.0,79,0.00,,,0.00,WUHU21623XXSP,2013-08-24 08:36:00,
2013-08-24 03:41:00,73.0,66.6,30.04,SE,135,0.0,0.0,80,0.00,,,0.00,WUHU21623XXSP,2013-08-24 08:41:00,
2013-08-24 03:46:00,72.9,66.4,30.05,SE,135,0.0,0.0,80,0.00,,,0.00,WUHU21623XXSP,2013-08-24 08:46:00,
2013-08-24 03:51:00,72.9,66.4,30.04,SE,135,0.0,0.0,80,0.00,,,0.00,WUHU21623XXSP,2013-08-24 08:51:00,
2013-08-24 03:56:00,72.9,66.4,30.05,SE,135,0.0,0.0,80,0.00,,,0.00,WUHU21623XXSP,2013-08-24 08:56:00,
2013-08-24 04:01:00,72.9,66.4,30.04,SE,135,0.0,0.0,80,0.00,,,0.00,WUHU21623XXSP,2013-08-24 09:01:00,
2013-08-24 04:06:00,72.9,66.4,30.05,SE,135,0.0,0.0,80,0.00,,,0.00,WUHU21623XXSP,2013-08-24 09:06:00,
2013-08-24 04:11:00,72.9,66.4,30.05,SE,135,0.0,0.0,80,0.00,,,0.00,WUHU21623XXSP,2013-08-24 09:11:00,
2013-08-24 04:16:00,72.7,66.2,30.05,SE,135,0.0,0.0,80,0.00,,,0.00,WUHU21623XXSP,2013-08-24 09:16:00,
2013-08-24 04:21:00,72.7,66.2,30.05,SE,135,0.0,0.0,80,0.00,,,0.00,WUHU21623XXSP,2013-08-24 09:21:00,
2013-08-24 04:26:00,72.5,66.0,30.05,SE,135,0.0,0.0,80,0.00,,,0.00,WUHU21623XXSP,2013-08-24 09:26:00,
2013-08-24 04:31:00,72.5,66.0,30.05,SE,135,0.0,0.0,80,0.00,,,0.00,WUHU21623XXSP,2013-08-24 09:31:00,
2013-08-24 04:36:00,72.5,66.4,30.05,SE,135,0.0,0.0,81,0.00,,,0.00,WUHU21623XXSP,2013-08-24 09:36:00,
2013-08-24 04:41:00,72.5,66.4,30.05,SE,135,0.0,0.0,81,0.00,,,0.00,WUHU21623XXSP,2013-08-24 09:41:00,
2013-08-24 04:46:00,72.5,66.4,30.05,SE,135,0.0,0.0,81,0.00,,,0.00,WUHU21623XXSP,2013-08-24 09:46:00,
2013-08-24 04:51:00,72.5,66.4,30.05,SE,135,0.0,0.0,81,0.00,,,0.00,WUHU21623XXSP,2013-08-24 09:51:00,
2013-08-24 04:56:00,72.3,66.2,30.05,SE,135,0.0,0.0,83,0.00,,,0.00,WUHU21623XXSP,2013-08-24 09:56:00,
2013-08-24 05:01:00,72.3,66.9,30.05,SE,135,0.0,0.0,83,0.00,,,0.00,WUHU21623XXSP,2013-08-24 10:01:00,
2013-08-24 05:06:00,72.3,66.9,30.05,SE,135,0.0,0.0,83,0.00,,,0.00,WUHU21623XXSP,2013-08-24 10:06:00,
2013-08-24 05:11:00,72.1,66.7,30.05,SE,135,0.0,0.0,83,0.00,,,0.00,WUHU21623XXSP,2013-08-24 10:11:00,
2013-08-24 05:16:00,72.3,66.9,30.05,SE,135,0.0,0.0,83,0.00,,,0.00,WUHU21623XXSP,2013-08-24 10:16:00,
2013-08-24 05:21:00,72.1,66.7,30.05,SE,135,0.0,0.0,83,0.00,,,0.00,WUHU21623XXSP,2013-08-24 10:21:00,
2013-08-24 05:26:00,72.1,66.7,30.06,SE,135,0.0,0.0,83,0.00,,,0.00,WUHU21623XXSP,2013-08-24 10:26:00,
2013-08-24 05:31:00,72.1,66.7,30.06,SE,135,0.0,0.0,83,0.00,,,0.00,WUHU21623XXSP,2013-08-24 10:31:00,
2013-08-24 05:36:00,72.0,66.5,30.06,SE,135,0.0,0.0,83,0.00,,,0.00,WUHU21623XXSP,2013-08-24 10:36:00,
2013-08-24 05:41:00,72.0,66.5,30.06,SE,135,0.0,0.0,83,0.00,,,0.00,WUHU21623XXSP,2013-08-24 10:41:00,
2013-08-24 05:46:00,71.8,66.3,30.06,SE,135,0.0,0.0,83,0.00,,,0.00,WUHU21623XXSP,2013-08-24 10:46:00,
2013-08-24 05:51:00,72.0,66.5,30.06,SE,135,0.0,0.0,83,0.00,,,0.00,WUHU21623XXSP,2013-08-24 10:51:00,
2013-08-24 05:56:00,71.8,66.3,30.07,SE,135,0.0,0.0,83,0.00,,,0.00,WUHU21623XXSP,2013-08-24 10:56:00,
2013-08-24 06:01:00,71.8,66.3,30.07,SE,135,0.0,0.0,83,0.00,,,0.00,WUHU21623XXSP,2013-08-24 11:01:00,
2013-08-24 06:06:00,71.8,66.7,30.07,SE,135,0.0,0.0,84,0.00,,,0.00,WUHU21623XXSP,2013-08-24 11:06:00,
2013-08-24 06:11:00,71.8,66.7,30.07,SE,135,0.0,0.0,84,0.00,,,0.00,WUHU21623XXSP,2013-08-24 11:11:00,
2013-08-24 06:16:00,71.8,66.7,30.07,SE,135,0.0,0.0,84,0.00,,,0.00,WUHU21623XXSP,2013-08-24 11:16:00,
2013-08-24 06:21:00,71.8,66.7,30.07,SE,135,0.0,0.0,84,0.00,,,0.00,WUHU21623XXSP,2013-08-24 11:21:00,
2013-08-24 06:26:00,71.8,66.7,30.07,SE,135,0.0,0.0,84,0.00,,,0.00,WUHU21623XXSP,2013-08-24 11:26:00,
2013-08-24 06:31:00,71.8,66.7,30.07,SE,135,0.0,0.0,84,0.00,,,0.00,WUHU21623XXSP,2013-08-24 11:31:00,
2013-08-24 06:36:00,71.8,66.7,30.07,SE,135,0.0,0.0,84,0.00,,,0.00,WUHU21623XXSP,2013-08-24 11:36:00,
2013-08-24 06:41:00,71.8,66.7,30.07,SE,135,0.0,0.0,84,0.00,,,0.00,WUHU21623XXSP,2013-08-24 11:41:00,
2013-08-24 06:46:00,71.8,66.7,30.07,SE,135,0.0,0.0,84,0.00,,,0.00,WUHU21623XXSP,2013-08-24 11:46:00,
2013-08-24 06:51:00,71.6,66.5,30.08,SE,135,0.0,0.0,84,0.00,,,0.00,WUHU21623XXSP,2013-08-24 11:51:00,
2013-08-24 06:56:00,71.6,66.5,30.08,SE,135,0.0,0.0,85,0.00,,,0.00,WUHU21623XXSP,2013-08-24 11:56:00,
2013-08-24 07:01:00,71.8,67.0,30.08,SE,135,0.0,0.0,85,0.00,,,0.00,WUHU21623XXSP,2013-08-24 12:01:00,
2013-08-24 07:06:00,71.8,67.0,30.09,SE,135,0.0,0.0,85,0.00,,,0.00,WUHU21623XXSP,2013-08-24 12:06:00,
2013-08-24 07:10:00,71.8,67.0,30.09,SE,135,0.0,0.0,85,0.00,,,0.00,WUHU21623XXSP,2013-08-24 12:10:00,
2013-08-24 07:15:00,72.0,67.2,30.09,SE,135,0.0,0.0,85,0.00,,,0.00,WUHU21623XXSP,2013-08-24 12:15:00,
2013-08-24 07:20:00,72.1,67.4,30.10,SE,135,0.0,0.0,85,0.00,,,0.00,WUHU21623XXSP,2013-08-24 12:20:00,
2013-08-24 07:25:00,72.3,67.9,30.10,SE,135,0.0,0.0,86,0.00,,,0.00,WUHU21623XXSP,2013-08-24 12:25:00,
2013-08-24 07:30:00,72.3,67.9,30.10,SE,135,0.0,0.0,86,0.00,,,0.00,WUHU21623XXSP,2013-08-24 12:30:00,
2013-08-24 07:35:00,72.5,67.4,30.10,SE,135,0.0,0.0,84,0.00,,,0.00,WUHU21623XXSP,2013-08-24 12:35:00,
2013-08-24 07:40:00,72.7,67.6,30.10,SE,135,0.0,0.0,84,0.00,,,0.00,WUHU21623XXSP,2013-08-24 12:40:00,
2013-08-24 07:45:00,73.0,68.3,30.10,SE,135,0.0,0.0,85,0.00,,,0.00,WUHU21623XXSP,2013-08-24 12:45:00,
2013-08-24 07:50:00,73.0,68.3,30.10,SE,135,0.0,0.0,85,0.00,,,0.00,WUHU21623XXSP,2013-08-24 12:50:00,
2013-08-24 07:55:00,73.6,68.8,30.11,SE,135,0.0,0.0,85,0.00,,,0.00,WUHU21623XXSP,2013-08-24 12:55:00,
2013-08-24 08:00:00,73.8,69.3,30.11,SE,135,0.0,0.0,86,0.00,,,0.00,WUHU21623XXSP,2013-08-24 13:00:00,
2013-08-24 08:05:00,74.3,69.9,30.11,SE,135,0.0,0.0,86,0.00,,,0.00,WUHU21623XXSP,2013-08-24 13:05:00,
2013-08-24 08:10:00,74.3,69.5,30.10,SE,135,0.0,0.0,85,0.00,,,0.00,WUHU21623XXSP,2013-08-24 13:10:00,
2013-08-24 08:15:00,74.8,70.4,30.11,SE,135,0.0,0.0,86,0.00,,,0.00,WUHU21623XXSP,2013-08-24 13:15:00,
2013-08-24 08:20:00,75.4,70.9,30.11,SE,135,0.0,2.5,86,0.00,,,0.00,WUHU21623XXSP,2013-08-24 13:20:00,
2013-08-24 08:25:00,75.7,71.3,30.11,SE,135,0.0,2.5,86,0.00,,,0.00,WUHU21623XXSP,2013-08-24 13:25:00,
2013-08-24 08:30:00,76.3,71.8,30.11,SE,135,0.0,0.0,86,0.00,,,0.00,WUHU21623XXSP,2013-08-24 13:30:00,
2013-08-24 08:35:00,77.2,72.3,30.11,SE,135,0.0,0.0,85,0.00,,,0.00,WUHU21623XXSP,2013-08-24 13:35:00,
2013-08-24 08:40:00,77.4,72.5,30.11,ESE,112,0.0,0.0,85,0.00,,,0.00,WUHU21623XXSP,2013-08-24 13:40:00,
2013-08-24 08:45:00,77.4,72.5,30.11,ESE,112,0.0,0.0,85,0.00,,,0.00,WUHU21623XXSP,2013-08-24 13:45:00,
2013-08-24 08:50:00,77.9,72.3,30.11,ESE,112,0.0,0.0,83,0.00,,,0.00,WUHU21623XXSP,2013-08-24 13:50:00,
2013-08-24 08:55:00,78.3,72.3,30.11,SE,135,0.0,0.0,82,0.00,,,0.00,WUHU21623XXSP,2013-08-24 13:55:00,
2013-08-24 09:00:00,78.4,72.5,30.11,ESE,112,0.0,0.0,82,0.00,,,0.00,WUHU21623XXSP,2013-08-24 14:00:00,
2013-08-24 09:05:00,79.2,72.8,30.11,NE,45,0.0,0.0,81,0.00,,,0.00,WUHU21623XXSP,2013-08-24 14:05:00,
2013-08-24 09:10:00,79.3,72.7,30.11,SE,135,0.0,2.5,80,0.00,,,0.00,WUHU21623XXSP,2013-08-24 14:10:00,
2013-08-24 09:15:00,79.3,72.7,30.11,SE,135,0.0,2.5,80,0.00,,,0.00,WUHU21623XXSP,2013-08-24 14:15:00,
2013-08-24 09:20:00,80.4,73.0,30.11,SE,135,0.0,0.0,78,0.00,,,0.00,WUHU21623XXSP,2013-08-24 14:20:00,
2013-08-24 09:25:00,80.4,73.0,30.11,SE,135,0.0,0.0,78,0.00,,,0.00,WUHU21623XXSP,2013-08-24 14:25:00,
2013-08-24 09:30:00,81.1,72.9,30.12,ESE,112,0.0,0.0,76,0.00,,,0.00,WUHU21623XXSP,2013-08-24 14:30:00,
2013-08-24 09:35:00,81.1,72.9,30.11,ESE,112,0.0,0.0,76,0.00,,,0.00,WUHU21623XXSP,2013-08-24 14:35:00,
2013-08-24 09:40:00,81.5,72.8,30.11,ESE,112,0.0,0.0,75,0.00,,,0.00,WUHU21623XXSP,2013-08-24 14:40:00,
2013-08-24 09:45:00,81.9,73.1,30.12,East,90,0.0,0.0,75,0.00,,,0.00,WUHU21623XXSP,2013-08-24 14:45:00,
2013-08-24 09:50:00,82.4,72.9,30.11,NNE,22,0.0,0.0,74,0.00,,,0.00,WUHU21623XXSP,2013-08-24 14:50:00,
2013-08-24 09:55:00,82.4,73.3,30.11,NNE,22,0.0,0.0,74,0.00,,,0.00,WUHU21623XXSP,2013-08-24 14:55:00,
2013-08-24 10:00:00,83.7,74.0,30.11,SE,135,0.0,0.0,73,0.00,,,0.00,WUHU21623XXSP,2013-08-24 15:00:00,
2013-08-24 10:05:00,83.7,74.0,30.12,SE,135,0.0,0.0,73,0.00,,,0.00,WUHU21623XXSP,2013-08-24 15:05:00,
2013-08-24 10:10:00,84.9,74.5,30.12,North,0,0.0,0.0,71,0.00,,,0.00,WUHU21623XXSP,2013-08-24 15:10:00,
2013-08-24 10:15:00,84.9,74.1,30.11,ENE,67,0.0,0.0,70,0.00,,,0.00,WUHU21623XXSP,2013-08-24 15:15:00,
2013-08-24 10:20:00,85.6,73.9,30.12,North,0,0.0,0.0,68,0.00,,,0.00,WUHU21623XXSP,2013-08-24 15:20:00,
2013-08-24 10:25:00,85.6,73.9,30.12,North,0,0.0,0.0,68,0.00,,,0.00,WUHU21623XXSP,2013-08-24 15:25:00,
2013-08-24 10:30:00,86.7,74.9,30.12,SE,135,0.0,0.0,68,0.00,,,0.00,WUHU21623XXSP,2013-08-24 15:30:00,
2013-08-24 10:35:00,86.7,74.9,30.12,SE,135,0.0,0.0,68,0.00,,,0.00,WUHU21623XXSP,2013-08-24 15:35:00,
2013-08-24 10:40:00,87.4,74.7,30.12,ESE,112,0.0,0.0,66,0.00,,,0.00,WUHU21623XXSP,2013-08-24 15:40:00,
2013-08-24 10:45:00,88.0,75.2,30.12,SE,135,0.0,0.0,66,0.00,,,0.00,WUHU21623XXSP,2013-08-24 15:45:00,
2013-08-24 10:50:00,88.7,74.5,30.12,North,0,0.0,0.0,63,0.00,,,0.00,WUHU21623XXSP,2013-08-24 15:50:00,
2013-08-24 10:55:00,88.7,74.0,30.12,SE,135,0.0,0.0,62,0.00,,,0.00,WUHU21623XXSP,2013-08-24 15:55:00,
2013-08-24 11:00:00,89.8,74.6,30.12,ESE,112,0.0,3.1,61,0.00,,,0.00,WUHU21623XXSP,2013-08-24 16:00:00,
2013-08-24 11:05:00,89.8,74.6,30.12,ESE,112,0.0,3.1,61,0.00,,,0.00,WUHU21623XXSP,2013-08-24 16:05:00,
2013-08-24 11:10:00,90.5,74.2,30.12,East,90,0.0,5.6,59,0.00,,,0.00,WUHU21623XXSP,2013-08-24 16:10:00,
2013-08-24 11:15:00,90.7,74.4,30.12,SE,135,5.6,5.6,59,0.00,,,0.00,WUHU21623XXSP,2013-08-24 16:15:00,
2013-08-24 11:20:00,90.9,74.0,30.12,ESE,112,0.0,5.6,58,0.00,,,0.00,WUHU21623XXSP,2013-08-24 16:20:00,
2013-08-24 11:25:00,90.9,74.0,30.12,ESE,112,1.8,1.8,58,0.00,,,0.00,WUHU21623XXSP,2013-08-24 16:25:00,
2013-08-24 11:30:00,91.0,73.1,30.11,NNE,22,0.0,1.8,56,0.00,,,0.00,WUHU21623XXSP,2013-08-24 16:30:00,
2013-08-24 11:35:00,91.0,73.1,30.11,NNE,22,0.0,1.8,56,0.00,,,0.00,WUHU21623XXSP,2013-08-24 16:35:00,
2013-08-24 11:40:00,90.5,72.6,30.11,ESE,112,0.0,0.0,56,0.00,,,0.00,WUHU21623XXSP,2013-08-24 16:40:00,
2013-08-24 11:45:00,90.5,72.6,30.11,SE,135,0.0,0.0,56,0.00,,,0.00,WUHU21623XXSP,2013-08-24 16:45:00,
2013-08-24 11:50:00,90.5,73.1,30.11,ESE,112,0.0,0.0,57,0.00,,,0.00,WUHU21623XXSP,2013-08-24 16:50:00,
2013-08-24 11:55:00,90.3,72.4,30.11,WSW,247,0.0,0.0,56,0.00,,,0.00,WUHU21623XXSP,2013-08-24 16:55:00,
2013-08-24 12:00:00,90.0,72.1,30.11,ESE,112,0.0,0.0,56,0.00,,,0.00,WUHU21623XXSP,2013-08-24 17:00:00,
2013-08-24 12:05:00,90.0,72.1,30.10,East,90,0.0,0.0,56,0.00,,,0.00,WUHU21623XXSP,2013-08-24 17:05:00,
2013-08-24 12:10:00,90.3,71.3,30.10,North,0,0.0,0.0,54,0.00,,,0.00,WUHU21623XXSP,2013-08-24 17:10:00,
2013-08-24 12:15:00,90.9,72.9,30.11,North,0,3.4,3.4,56,0.00,,,0.00,WUHU21623XXSP,2013-08-24 17:15:00,
2013-08-24 12:20:00,91.6,73.0,30.10,SE,135,2.9,3.4,55,0.00,,,0.00,WUHU21623XXSP,2013-08-24 17:20:00,
2013-08-24 12:25:00,92.3,73.7,30.10,ESE,112,0.0,3.4,55,0.00,,,0.00,WUHU21623XXSP,2013-08-24 17:25:00,
2013-08-24 12:30:00,93.2,72.9,30.10,ESE,112,0.0,0.0,52,0.00,,,0.00,WUHU21623XXSP,2013-08-24 17:30:00,
2013-08-24 12:35:00,93.9,74.1,30.10,SE,135,2.5,7.6,53,0.00,,,0.00,WUHU21623XXSP,2013-08-24 17:35:00,
2013-08-24 12:40:00,95.0,73.6,30.10,East,90,2.9,7.6,50,0.00,,,0.00,WUHU21623XXSP,2013-08-24 17:40:00,
2013-08-24 12:45:00,94.8,72.7,30.10,SE,135,0.0,2.9,49,0.00,,,0.00,WUHU21623XXSP,2013-08-24 17:45:00,
2013-08-24 12:50:00,94.8,72.1,30.10,ESE,112,1.1,1.1,48,0.00,,,0.00,WUHU21623XXSP,2013-08-24 17:50:00,
2013-08-24 12:55:00,94.8,72.7,30.10,SE,135,0.0,1.1,49,0.00,,,0.00,WUHU21623XXSP,2013-08-24 17:55:00,
2013-08-24 13:00:00,95.2,72.4,30.10,SE,135,0.0,0.0,48,0.00,,,0.00,WUHU21623XXSP,2013-08-24 18:00:00,
2013-08-24 13:05:00,95.2,71.7,30.10,ESE,112,0.0,0.0,47,0.00,,,0.00,WUHU21623XXSP,2013-08-24 18:05:00,
2013-08-24 13:10:00,94.6,70.6,30.10,ESE,112,1.6,1.6,46,0.00,,,0.00,WUHU21623XXSP,2013-08-24 18:10:00,
2013-08-24 13:15:00,94.5,70.4,30.10,SE,135,0.0,1.6,46,0.00,,,0.00,WUHU21623XXSP,2013-08-24 18:15:00,
2013-08-24 13:20:00,93.9,70.5,30.09,SE,135,0.0,0.0,47,0.00,,,0.00,WUHU21623XXSP,2013-08-24 18:20:00,
2013-08-24 13:25:00,93.0,69.7,30.09,SE,135,0.0,0.0,47,0.00,,,0.00,WUHU21623XXSP,2013-08-24 18:25:00,
2013-08-24 13:30:00,92.8,72.0,30.09,South,180,0.0,0.0,51,0.00,,,0.00,WUHU21623XXSP,2013-08-24 18:30:00,
2013-08-24 13:35:00,93.6,72.7,30.09,East,90,4.5,4.5,51,0.00,,,0.00,WUHU21623XXSP,2013-08-24 18:35:00,
2013-08-24 13:40:00,94.3,72.2,30.09,SE,135,0.0,4.5,49,0.00,,,0.00,WUHU21623XXSP,2013-08-24 18:40:00,
2013-08-24 13:45:00,94.5,71.0,30.09,East,90,0.0,4.5,47,0.00,,,0.00,WUHU21623XXSP,2013-08-24 18:45:00,
2013-08-24 13:50:00,94.6,70.6,30.09,NNE,22,0.0,0.0,46,0.00,,,0.00,WUHU21623XXSP,2013-08-24 18:50:00,
2013-08-24 13:55:00,95.0,71.6,30.09,ESE,112,3.4,3.4,47,0.00,,,0.00,WUHU21623XXSP,2013-08-24 18:55:00,
2013-08-24 14:00:00,95.7,72.2,30.09,ESE,112,0.0,3.4,47,0.00,,,0.00,WUHU21623XXSP,2013-08-24 19:00:00,
2013-08-24 14:05:00,96.3,71.4,30.09,SE,135,0.0,3.4,45,0.00,,,0.00,WUHU21623XXSP,2013-08-24 19:05:00,
2013-08-24 14:10:00,95.7,69.6,30.09,North,0,0.0,0.0,43,0.00,,,0.00,WUHU21623XXSP,2013-08-24 19:10:00,
2013-08-24 14:15:00,95.5,71.4,30.09,SSE,157,1.3,1.3,46,0.00,,,0.00,WUHU21623XXSP,2013-08-24 19:15:00,
2013-08-24 14:20:00,95.5,71.4,30.09,SSE,157,1.3,1.3,46,0.00,,,0.00,WUHU21623XXSP,2013-08-24 19:20:00,
2013-08-24 14:25:00,95.5,70.7,30.09,South,180,0.0,1.3,45,0.00,,,0.00,WUHU21623XXSP,2013-08-24 19:25:00,
2013-08-24 14:30:00,95.2,70.4,30.08,SE,135,0.0,0.0,45,0.00,,,0.00,WUHU21623XXSP,2013-08-24 19:30:00,
2013-08-24 14:35:00,94.6,70.3,30.08,SE,135,0.0,0.0,45,0.00,,,0.00,WUHU21623XXSP,2013-08-24 19:35:00,
2013-08-24 14:40:00,93.7,69.0,30.08,ESE,112,0.0,0.0,45,0.00,,,0.00,WUHU21623XXSP,2013-08-24 19:40:00,
2013-08-24 14:45:00,93.6,70.2,30.08,SE,135,1.6,1.6,47,0.00,,,0.00,WUHU21623XXSP,2013-08-24 19:45:00,
2013-08-24 14:50:00,93.6,70.2,30.08,ESE,112,0.0,1.6,47,0.00,,,0.00,WUHU21623XXSP,2013-08-24 19:50:00,
2013-08-24 14:55:00,93.9,71.2,30.07,SE,135,3.6,3.6,48,0.00,,,0.00,WUHU21623XXSP,2013-08-24 19:55:00,
2013-08-24 15:00:00,94.5,71.7,30.08,ESE,112,0.0,3.6,48,0.00,,,0.00,WUHU21623XXSP,2013-08-24 20:00:00,
2013-08-24 15:05:00,95.2,71.7,30.07,East,90,0.0,3.6,47,0.00,,,0.00,WUHU21623XXSP,2013-08-24 20:05:00,
2013-08-24 15:10:00,95.7,72.2,30.07,SE,135,0.0,0.0,47,0.00,,,0.00,WUHU21623XXSP,2013-08-24 20:10:00,
2013-08-24 15:15:00,95.9,71.1,30.07,ESE,112,0.0,0.0,45,0.00,,,0.00,WUHU21623XXSP,2013-08-24 20:15:00,
2013-08-24 15:20:00,96.6,71.0,30.07,ESE,112,2.7,4.0,44,0.00,,,0.00,WUHU21623XXSP,2013-08-24 20:20:00,
2013-08-24 15:25:00,96.4,70.2,30.07,SE,135,0.0,4.0,43,0.00,,,0.00,WUHU21623XXSP,2013-08-24 20:25:00,
2013-08-24 15:30:00,96.4,70.2,30.07,SE,135,0.0,0.0,43,0.00,,,0.00,WUHU21623XXSP,2013-08-24 20:30:00,
2013-08-24 15:35:00,95.7,70.2,30.07,ESE,112,0.0,3.1,44,0.00,,,0.00,WUHU21623XXSP,2013-08-24 20:35:00,
2013-08-24 15:40:00,95.7,70.2,30.07,ESE,112,0.0,3.1,44,0.00,,,0.00,WUHU21623XXSP,2013-08-24 20:40:00,
2013-08-24 15:45:00,94.1,68.7,30.07,East,90,0.0,0.0,44,0.00,,,0.00,WUHU21623XXSP,2013-08-24 20:45:00,
2013-08-24 15:50:00,93.9,68.6,30.07,East,90,0.0,0.0,44,0.00,,,0.00,WUHU21623XXSP,2013-08-24 20:50:00,
2013-08-24 15:55:00,92.8,68.9,30.07,ESE,112,0.0,0.0,46,0.00,,,0.00,WUHU21623XXSP,2013-08-24 20:55:00,
2013-08-24 16:00:00,92.8,68.9,30.07,SE,135,0.0,0.0,46,0.00,,,0.00,WUHU21623XXSP,2013-08-24 21:00:00,
2013-08-24 16:05:00,92.7,70.0,30.06,SE,135,0.0,0.0,48,0.00,,,0.00,WUHU21623XXSP,2013-08-24 21:05:00,
2013-08-24 16:10:00,93.2,70.0,30.06,SE,135,0.0,0.0,49,0.00,,,0.00,WUHU21623XXSP,2013-08-24 21:10:00,
2013-08-24 16:15:00,93.6,70.2,30.06,SE,135,2.2,2.2,47,0.00,,,0.00,WUHU21623XXSP,2013-08-24 21:15:00,
2013-08-24 16:20:00,94.5,70.4,30.06,ESE,112,1.8,2.2,46,0.00,,,0.00,WUHU21623XXSP,2013-08-24 21:20:00,
2013-08-24 16:25:00,95.4,71.2,30.06,SE,135,0.0,1.8,46,0.00,,,0.00,WUHU21623XXSP,2013-08-24 21:25:00,
2013-08-24 16:30:00,95.4,70.6,30.06,SSE,157,0.0,1.1,45,0.00,,,0.00,WUHU21623XXSP,2013-08-24 21:30:00,
2013-08-24 16:35:00,95.7,71.6,30.06,East,90,0.0,0.7,46,0.00,,,0.00,WUHU21623XXSP,2013-08-24 21:35:00,
2013-08-24 16:40:00,95.9,69.7,30.06,SW,225,0.0,0.7,43,0.00,,,0.00,WUHU21623XXSP,2013-08-24 21:40:00,
2013-08-24 16:45:00,95.9,69.7,30.05,ESE,112,0.0,0.0,43,0.00,,,0.00,WUHU21623XXSP,2013-08-24 21:45:00,
2013-08-24 16:50:00,95.9,70.4,30.05,SE,135,0.0,0.0,44,0.00,,,0.00,WUHU21623XXSP,2013-08-24 21:50:00,
2013-08-24 16:55:00,96.6,70.4,30.05,SE,135,2.7,2.7,43,0.00,,,0.00,WUHU21623XXSP,2013-08-24 21:55:00,
2013-08-24 17:00:00,96.8,70.5,30.05,SE,135,1.1,2.7,43,0.00,,,0.00,WUHU21623XXSP,2013-08-24 22:00:00,
2013-08-24 17:05:00,95.7,68.9,30.05,ESE,112,0.0,1.1,42,0.00,,,0.00,WUHU21623XXSP,2013-08-24 22:05:00,
2013-08-24 17:10:00,94.8,68.1,30.06,ESE,112,0.0,0.0,42,0.00,,,0.00,WUHU21623XXSP,2013-08-24 22:10:00,
2013-08-24 17:15:00,94.1,68.1,30.05,SW,225,1.6,1.6,43,0.00,,,0.00,WUHU21623XXSP,2013-08-24 22:15:00,
2013-08-24 17:20:00,92.8,67.6,30.05,ESE,112,0.0,2.5,44,0.00,,,0.00,WUHU21623XXSP,2013-08-24 22:20:00,
2013-08-24 17:25:00,91.9,67.4,30.05,SE,135,5.4,5.4,45,0.00,,,0.00,WUHU21623XXSP,2013-08-24 22:25:00,
2013-08-24 17:30:00,91.2,67.4,30.05,ESE,112,3.1,5.4,46,0.00,,,0.00,WUHU21623XXSP,2013-08-24 22:30:00,
2013-08-24 17:35:00,90.9,69.0,30.06,ESE,112,0.0,3.1,49,0.00,,,0.00,WUHU21623XXSP,2013-08-24 22:35:00,
2013-08-24 17:40:00,91.0,69.2,30.06,ESE,112,0.9,4.0,49,0.00,,,0.00,WUHU21623XXSP,2013-08-24 22:40:00,
2013-08-24 17:46:00,90.9,69.0,30.07,ESE,112,4.7,4.7,49,0.00,,,0.00,WUHU21623XXSP,2013-08-24 22:46:00,
2013-08-24 17:50:00,90.9,69.0,30.07,ESE,112,6.0,6.0,49,0.00,,,0.00,WUHU21623XXSP,2013-08-24 22:50:00,
2013-08-24 17:55:00,90.5,68.7,30.06,ENE,67,1.8,6.0,49,0.00,,,0.00,WUHU21623XXSP,2013-08-24 22:55:00,
2013-08-24 18:00:00,90.5,68.1,30.06,ESE,112,0.0,1.8,48,0.00,,,0.00,WUHU21623XXSP,2013-08-24 23:00:00,
2013-08-24 18:05:00,90.1,68.4,30.06,ESE,112,0.0,0.9,49,0.00,,,0.00,WUHU21623XXSP,2013-08-24 23:05:00,
2013-08-24 18:10:00,89.8,68.1,30.06,ESE,112,0.0,3.8,49,0.00,,,0.00,WUHU21623XXSP,2013-08-24 23:10:00,
2013-08-24 18:15:00,89.2,67.6,30.07,ESE,112,2.7,4.7,49,0.00,,,0.00,WUHU21623XXSP,2013-08-24 23:15:00,
2013-08-24 18:21:00,89.1,67.4,30.07,SE,135,1.1,4.7,49,0.00,,,0.00,WUHU21623XXSP,2013-08-24 23:21:00,
2013-08-24 18:26:00,88.5,68.1,30.07,ESE,112,0.0,1.1,51,0.00,,,0.00,WUHU21623XXSP,2013-08-24 23:26:00,
2013-08-24 18:31:00,88.0,67.6,30.07,ESE,112,0.0,0.0,51,0.00,,,0.00,WUHU21623XXSP,2013-08-24 23:31:00,
2013-08-24 18:36:00,87.3,67.5,30.07,SSW,202,0.0,0.0,52,0.00,,,0.00,WUHU21623XXSP,2013-08-24 23:36:00,
2013-08-24 18:41:00,86.9,67.7,30.07,SSW,202,0.0,0.0,53,0.00,,,0.00,WUHU21623XXSP,2013-08-24 23:41:00,
2013-08-24 18:46:00,86.4,67.7,30.07,SSW,202,0.0,0.0,54,0.00,,,0.00,WUHU21623XXSP,2013-08-24 23:46:00,
2013-08-24 18:51:00,86.4,67.7,30.07,South,180,0.0,0.0,54,0.00,,,0.00,WUHU21623XXSP,2013-08-24 23:51:00,
2013-08-24 18:56:00,86.2,67.7,30.07,South,180,0.0,0.0,55,0.00,,,0.00,WUHU21623XXSP,2013-08-24 23:56:00,
2013-08-24 19:01:00,85.6,68.1,30.07,South,180,0.0,0.0,56,0.00,,,0.00,WUHU21623XXSP,2013-08-25 00:01:00,
2013-08-24 19:06:00,85.1,67.6,30.07,SSW,202,0.0,0.0,56,0.00,,,0.00,WUHU21623XXSP,2013-08-25 00:06:00,
2013-08-24 19:11:00,84.9,67.8,30.07,SSW,202,0.0,0.0,56,0.00,,,0.00,WUHU21623XXSP,2013-08-25 00:11:00,
2013-08-24 19:16:00,84.6,68.2,30.07,SSW,202,0.0,0.0,58,0.00,,,0.00,WUHU21623XXSP,2013-08-25 00:16:00,
2013-08-24 19:21:00,84.6,68.7,30.07,SSW,202,0.0,0.0,59,0.00,,,0.00,WUHU21623XXSP,2013-08-25 00:21:00,
2013-08-24 19:26:00,84.6,68.7,30.07,SSW,202,0.0,0.0,59,0.00,,,0.00,WUHU21623XXSP,2013-08-25 00:26:00,
2013-08-24 19:31:00,83.8,68.0,30.08,SSW,202,0.0,0.0,59,0.00,,,0.00,WUHU21623XXSP,2013-08-25 00:31:00,
2013-08-24 19:36:00,83.3,68.0,30.07,SSW,202,0.0,0.0,60,0.00,,,0.00,WUHU21623XXSP,2013-08-25 00:36:00,
2013-08-24 19:41:00,82.9,67.6,30.08,SSW,202,0.0,0.0,60,0.00,,,0.00,WUHU21623XXSP,2013-08-25 00:41:00,
2013-08-24 19:46:00,82.4,67.6,30.08,SSW,202,0.0,0.0,61,0.00,,,0.00,WUHU21623XXSP,2013-08-25 00:46:00,
2013-08-24 19:51:00,82.2,67.8,30.08,SSW,202,0.0,0.0,62,0.00,,,0.00,WUHU21623XXSP,2013-08-25 00:51:00,
2013-08-24 19:56:00,81.7,67.8,30.08,SSW,202,0.0,0.0,63,0.00,,,0.00,WUHU21623XXSP,2013-08-25 00:56:00,
2013-08-24 20:01:00,81.3,67.5,30.08,SSW,202,0.0,0.0,63,0.00,,,0.00,WUHU21623XXSP,2013-08-25 01:01:00,
2013-08-24 20:06:00,81.3,67.5,30.08,SSW,202,0.0,0.0,63,0.00,,,0.00,WUHU21623XXSP,2013-08-25 01:06:00,
2013-08-24 20:11:00,80.8,67.0,30.09,SSW,202,0.0,0.0,63,0.00,,,0.00,WUHU21623XXSP,2013-08-25 01:11:00,
2013-08-24 20:16:00,80.6,67.3,30.09,SSW,202,0.0,0.0,64,0.00,,,0.00,WUHU21623XXSP,2013-08-25 01:16:00,
2013-08-24 20:21:00,80.2,66.9,30.09,SSW,202,0.0,0.0,64,0.00,,,0.00,WUHU21623XXSP,2013-08-25 01:21:00,
2013-08-24 20:26:00,79.9,67.0,30.10,SSW,202,0.0,0.0,65,0.00,,,0.00,WUHU21623XXSP,2013-08-25 01:26:00,
2013-08-24 20:31:00,79.7,66.9,30.10,SSW,202,0.0,0.0,65,0.00,,,0.00,WUHU21623XXSP,2013-08-25 01:31:00,
2013-08-24 20:36:00,79.5,67.1,30.10,SSW,202,0.0,0.0,66,0.00,,,0.00,WUHU21623XXSP,2013-08-25 01:36:00,
2013-08-24 20:41:00,79.5,67.6,30.10,SSW,202,0.0,0.0,67,0.00,,,0.00,WUHU21623XXSP,2013-08-25 01:41:00,
2013-08-24 20:46:00,79.3,67.4,30.10,SSW,202,0.0,0.0,67,0.00,,,0.00,WUHU21623XXSP,2013-08-25 01:46:00,
2013-08-24 20:51:00,79.3,67.8,30.10,SSW,202,0.0,0.0,68,0.00,,,0.00,WUHU21623XXSP,2013-08-25 01:51:00,
2013-08-24 20:56:00,79.2,68.1,30.10,SSW,202,0.0,0.0,69,0.00,,,0.00,WUHU21623XXSP,2013-08-25 01:56:00,
2013-08-24 21:01:00,79.0,67.9,30.10,SSW,202,0.0,0.0,69,0.00,,,0.00,WUHU21623XXSP,2013-08-25 02:01:00,
2013-08-24 21:06:00,79.0,67.9,30.10,SSW,202,0.0,0.0,69,0.00,,,0.00,WUHU21623XXSP,2013-08-25 02:06:00,
2013-08-24 21:11:00,78.4,67.4,30.10,SSW,202,0.0,0.0,69,0.00,,,0.00,WUHU21623XXSP,2013-08-25 02:11:00,
2013-08-24 21:16:00,78.4,67.4,30.11,SSW,202,0.0,0.0,69,0.00,,,0.00,WUHU21623XXSP,2013-08-25 02:16:00,
2013-08-24 21:21:00,78.3,67.2,30.11,SSW,202,0.0,0.0,69,0.00,,,0.00,WUHU21623XXSP,2013-08-25 02:21:00,
2013-08-24 21:26:00,78.1,67.1,30.11,SSW,202,0.0,0.0,69,0.00,,,0.00,WUHU21623XXSP,2013-08-25 02:26:00,
2013-08-24 21:31:00,77.9,67.4,30.11,SSW,202,0.0,0.0,70,0.00,,,0.00,WUHU21623XXSP,2013-08-25 02:31:00,
2013-08-24 21:36:00,77.9,67.4,30.11,SSW,202,0.0,0.0,70,0.00,,,0.00,WUHU21623XXSP,2013-08-25 02:36:00,
2013-08-24 21:41:00,77.5,67.4,30.11,SSW,202,0.0,0.0,71,0.00,,,0.00,WUHU21623XXSP,2013-08-25 02:41:00,
2013-08-24 21:46:00,77.5,67.4,30.11,SSW,202,0.0,0.0,71,0.00,,,0.00,WUHU21623XXSP,2013-08-25 02:46:00,
2013-08-24 21:51:00,77.4,67.6,30.11,SSW,202,0.0,0.0,72,0.00,,,0.00,WUHU21623XXSP,2013-08-25 02:51:00,
2013-08-24 21:55:00,77.4,67.6,30.12,SSW,202,0.0,0.0,72,0.00,,,0.00,WUHU21623XXSP,2013-08-25 02:55:00,
2013-08-24 22:00:00,77.4,68.0,30.12,SSW,202,0.0,0.0,73,0.00,,,0.00,WUHU21623XXSP,2013-08-25 03:00:00,
2013-08-24 22:05:00,77.4,68.0,30.12,SSW,202,0.0,0.0,73,0.00,,,0.00,WUHU21623XXSP,2013-08-25 03:05:00,
2013-08-24 22:10:00,77.4,68.0,30.12,SSW,202,0.0,0.0,73,0.00,,,0.00,WUHU21623XXSP,2013-08-25 03:10:00,
2013-08-24 22:15:00,77.4,68.0,30.12,SSW,202,0.0,0.0,73,0.00,,,0.00,WUHU21623XXSP,2013-08-25 03:15:00,
2013-08-24 22:20:00,77.2,67.9,30.12,SSW,202,0.0,0.0,73,0.00,,,0.00,WUHU21623XXSP,2013-08-25 03:20:00,
2013-08-24 22:25:00,77.2,67.9,30.12,SSW,202,0.0,0.0,73,0.00,,,0.00,WUHU21623XXSP,2013-08-25 03:25:00,
2013-08-24 22:30:00,76.8,67.5,30.12,SSW,202,0.0,0.0,73,0.00,,,0.00,WUHU21623XXSP,2013-08-25 03:30:00,
2013-08-24 22:35:00,76.8,67.5,30.12,SSW,202,0.0,0.0,73,0.00,,,0.00,WUHU21623XXSP,2013-08-25 03:35:00,
2013-08-24 22:40:00,76.6,67.3,30.12,SSW,202,0.0,0.0,73,0.00,,,0.00,WUHU21623XXSP,2013-08-25 03:40:00,
2013-08-24 22:45:00,76.6,67.3,30.12,SSW,202,0.0,0.0,73,0.00,,,0.00,WUHU21623XXSP,2013-08-25 03:45:00,
2013-08-24 22:50:00,76.5,67.2,30.12,SSW,202,0.0,0.0,73,0.00,,,0.00,WUHU21623XXSP,2013-08-25 03:50:00,
2013-08-24 22:55:00,76.5,67.2,30.12,SSW,202,0.0,0.0,73,0.00,,,0.00,WUHU21623XXSP,2013-08-25 03:55:00,
2013-08-24 23:01:00,76.5,67.6,30.12,SSE,157,0.0,0.0,74,0.00,,,0.00,WUHU21623XXSP,2013-08-25 04:01:00,
2013-08-24 23:02:00,76.5,67.6,30.12,SSE,157,0.0,0.0,74,0.00,,,0.00,WUHU21623XXSP,2013-08-25 04:02:00,
2013-08-24 23:07:00,76.5,67.6,30.12,SSE,157,0.0,0.0,74,0.00,,,0.00,WUHU21623XXSP,2013-08-25 04:07:00,
2013-08-24 23:12:00,76.5,67.6,30.12,SSE,157,0.0,0.0,74,0.00,,,0.00,WUHU21623XXSP,2013-08-25 04:12:00,
2013-08-24 23:17:00,76.5,67.6,30.12,SSE,157,0.0,0.0,74,0.00,,,0.00,WUHU21623XXSP,2013-08-25 04:17:00,
2013-08-24 23:22:00,76.1,67.2,30.12,SSE,157,0.0,0.0,74,0.00,,,0.00,WUHU21623XXSP,2013-08-25 04:22:00,
2013-08-24 23:27:00,76.1,67.2,30.12,SSE,157,0.0,0.0,74,0.00,,,0.00,WUHU21623XXSP,2013-08-25 04:27:00,
2013-08-24 23:32:00,76.1,67.2,30.12,SSE,157,0.0,0.0,74,0.00,,,0.00,WUHU21623XXSP,2013-08-25 04:32:00,
2013-08-24 23:37:00,76.1,67.2,30.13,SSE,157,0.0,0.0,74,0.00,,,0.00,WUHU21623XXSP,2013-08-25 04:37:00,
2013-08-24 23:42:00,75.9,67.4,30.12,SSE,157,0.0,0.0,75,0.00,,,0.00,WUHU21623XXSP,2013-08-25 04:42:00,
2013-08-24 23:47:00,75.9,67.4,30.13,SSE,157,0.0,0.0,75,0.00,,,0.00,WUHU21623XXSP,2013-08-25 04:47:00,
2013-08-24 23:52:00,75.7,67.2,30.13,SSE,157,0.0,0.0,75,0.00,,,0.00,WUHU21623XXSP,2013-08-25 04:52:00,
2013-08-24 23:57:00,75.6,67.1,30.13,SSE,157,0.0,0.0,75,0.00,,,0.00,WUHU21623XXSP,2013-08-25 04:57:00,